Location: Gwatt
(46.7204°N, 7.6223°E)
Time: 22:49:10
(UTC+00:00)

Courier 1B Rocket - Pass Details

Date: 30 January 2021
Orbit: 920 x 1202 km, 28.3° (Epoch: 25 February)

Event Time Altitude Azimuth Distance (km) Brightness Sun altitude
Exits shadow 05:18:10 - 222° (SW) 3,143 7.3 -16.9°
Reaches altitude 10° 05:20:21 10° 207° (SSW) 2,682 7.1 -16.5°
Maximum altitude 05:23:42 15° 176° (S) 2,399 7.2 -15.9°
Drops below altitude 10° 05:27:09 10° 144° (SE) 2,773 8.0 -15.3°
Sets 05:31:15 0° 122° (ESE) 3,789 9.4 -14.7°
